Regional Weather Roundup
Issued by NWS

Home | Current Version | Previous Version | Graphics & Text | Print | Product List | Glossary Off
Versions: 1 2 3 4 5 6 7 8 9 10 11 12 13 14 15 16 17 18 19 20 21 22 23 24 25 26 27 28 29 30 31 32 33 34 35 36 37 38 39 40 41 42 43 44 45 46 47 48 49 50

000
ASUS43 KMPX 040710
RWRMN
WEATHER ROUNDUP FOR MINNESOTA
NATIONAL WEATHER SERVICE TWIN CITIES/CHANHASSEN MN
100 AM CST WED MAR 04 2015


NOTE: "FAIR" INDICATES FEW OR NO CLOUDS BELOW 12,000 FEET WITH NO
SIGNIFICANT WEATHER AND/OR OBSTRUCTIONS TO VISIBILITY. N/A MEANS
CURRENT SKY AND/OR WEATHER CONDITIONS ARE NOT AVAILABLE.

MNZ060>063-068>070-040800-
   Twin Cities Metro

CITY           SKY/WX    TMP DP  RH WIND       PRES   REMARKS
TWIN CITIES    PTCLDY     5  -5  63 W13       30.05R WCI -12
ST PAUL        MOCLDY     6  -1  73 W13       30.07R WCI -10
CRYSTAL        PTCLDY     5  -4  66 W12       30.04R WCI -11
BLAINE         CLEAR      7   0  72 W12       30.03R WCI  -9
LAKEVILLE      CLEAR      3  -4  72 W13       30.04R WCI -14
EDEN PRAIRIE   CLEAR      4  -6  63 NW12      30.05R WCI -12
SOUTH ST PAUL  PTCLDY     8  -1  66 W8        30.05R WCI  -5
LAKE ELMO      FAIR       7  -2  66 NW7       30.04R WCI  -5
$$
MNZ001>005-007-008-013>017-022>024-027-028-040800-
   Northwest Minnesota

CITY           SKY/WX    TMP DP  RH WIND       PRES   REMARKS
BEMIDJI        CLEAR     -5 -11  77 W10       29.93S WCI -23
HALLOCK        CLEAR     -6 -13  71 W7        30.00R WCI -20
ROSEAU         CLEAR     -6 -11  77 W7        29.95R WCI -20
WARROAD        CLEAR     -9 -15  77 W7        29.93R WCI -24
THIEF RVR FALL PTCLDY    -4  -9  77 W8        29.97S WCI -19
CROOKSTON      CLEAR      0  -8  71 NW14      30.04R WCI -19
FOSSTON        LGT SNOW  -6  -9  84 W7        29.98R WCI -20
DETROIT LAKES  CLEAR      0  -8  71 W12       30.00S WCI -18
MOORHEAD       CLEAR      1  -6  71 NW12      30.07S WCI -15
PARK RAPIDS    FAIR      -4 -10  75 W10       29.95R WCI -21
MAHNOMEN       FAIR      -4 -10  75 W10       29.99S WCI -22
$$
MNZ006-009>011-018-025>026-040800-
   North Central Minnesota

CITY           SKY/WX    TMP DP  RH WIND       PRES   REMARKS
BAUDETTE       CLEAR     -7 -13  75 W7        29.90R WCI -21
FLAG ISLAND    CLEAR     -9 -17  70 SW6       29.91R WCI -23
INTL FALLS     PTCLDY    -6 -12  75 W9        29.88R WCI -23
WASKISH        FAIR      -6  -9  84 W8        29.92R WCI -21
BIG FORK       CLOUDY    -6 -11  77 W5        29.89S HAZE    WCI -17
LONGVILLE      MOCLDY    -4 -11  71 W5        29.94S WCI -15
GRAND RAPIDS   CLOUDY    -2  -9  71 W12       29.89R WCI -20
CRANE LAKE     MOCLDY    -4  -9  77 CALM      29.88R
ORR            CLEAR     -6 -11  77 W8        29.83R WCI -21
COOK           CLEAR     -6  -9  84 W9        29.87R WCI -22
WALKER         CLOUDY    -4 -10  76 W8        29.94R WCI -19
$$
MNZ012-019>021-037-040800-
   Northeast Minnesota

CITY           SKY/WX    TMP DP  RH WIND       PRES   REMARKS
DULUTH         PTCLDY    -1 -10  65 NW13G23   29.85R WCI -19
ELY            LGT SNOW  -2  -8  78 W7        29.81R WCI -16
HIBBING        PTCLDY    -4 -12  68 W9        29.88R WCI -20
EVELETH        CLEAR     -2  -9  71 W9        29.87R WCI -18
DULUTH HARBOR  CLEAR      3  -8  60 W14       29.97R WCI -15
TWO HARBORS    CLEAR      1  -8  66 W8G18     29.85R WCI -12
SILVER BAY     FAIR       1  -8  66 W12G17    29.82R WCI -15
GRAND MARAIS     N/A      4  -5  66 W8        29.82R WCI  -9
G MARAIS ARPRT CLEAR     -4 -13  65 W15G23    29.66R WCI -25
$$
MNZ029>031-032-039>041-046>048-054>057-064-040800-
   West Central Minnesota

CITY           SKY/WX    TMP DP  RH WIND       PRES   REMARKS
FERGUS FALLS   CLEAR     -4 -11  71 W7        30.09S WCI -18
WHEATON        CLEAR     -2  -9  71 W9        30.11S WCI -18
MORRIS         CLEAR     -2  -9  71 W8        30.07R WCI -17
ALEXANDRIA     CLEAR     -2  -9  72 NW13      30.01R WCI -20
ELBOW LAKE     FAIR      -4  -9  80 W8        30.05R WCI -19
WADENA         CLEAR     -4  -9  77 W7        29.99R WCI -18
GLENWOOD       FAIR       0  -8  71 W10       30.03S WCI -17
APPLETON       CLEAR      0  -8  71 W13       30.11R WCI -18
BENSON         CLEAR      0  -8  71 NW13      30.07R WCI -18
ORTONVILLE       N/A      0  -9  65 W10       30.10R WCI -17
MADISON        CLEAR      3  -6  66 NW12      30.12R WCI -13
WILLMAR        FAIR       3  -6  66 NW13      30.07R WCI -14
$$
MNZ033>034-036-042>043-049>051-058-059-040800-
   Central Minnesota

CITY           SKY/WX    TMP DP  RH WIND       PRES   REMARKS
ST CLOUD       CLEAR      1  -8  66 W12       30.02R WCI -16
SAUK CENTRE    FAIR      -1  -8  71 NW9       30.03R WCI -17
PAYNESVILLE    CLEAR     -1  -8  73 W10       30.04R WCI -18
AITKIN         CLEAR      1  -9  60 NW7       29.95R WCI -11
PINE RIVER     CLOUDY    -2  -8  78 W5        30.00R WCI -12
BRAINERD       CLEAR     -2  -8  76 W7        29.98R WCI -15
STAPLES        CLEAR     -4 -11  71 W9        29.99R WCI -20
LITTLE FALLS   PTCLDY     0  -8  71 W7        30.02R WCI -13
LITCHFIELD     CLEAR      3  -4  72 NW9G20    30.05R WCI -11
BUFFALO        CLEAR      3  -7  63 W12G17    30.06R WCI -13
MAPLE LAKE     CLEAR      3  -4  70 W12       30.04R WCI -13
$$
MNZ037-044-045-052-053-040800-
   East Central Minnesota

CITY           SKY/WX    TMP DP  RH WIND       PRES   REMARKS
PRINCETON      CLEAR      3  -6  66 W8        30.01R WCI -10
MORA           CLEAR      1  -8  66 W6        30.00R WCI -10
CAMBRIDGE      FAIR       3  -6  66 W8        29.99R WCI -10
RUSH CITY      MOCLDY     1  -7  70 W7        30.00R WCI -12
MOOSE LAKE     CLEAR      1  -8  66 NW3       29.94R
HINCKLEY       FAIR       3  -4  72 W5        29.97R WCI  -6
CLOQUET        CLEAR     -2 -11  65 W10       29.89R WCI -19
MCGREGOR       CLEAR      1  -8  66 W9        29.95R WCI -14
$$
MNZ071>073-080-081-089-090-097-098-040800-
   Southwest Minnesota

CITY           SKY/WX    TMP DP  RH WIND       PRES   REMARKS
MONTEVIDEO     CLEAR      3  -4  72 NW10G16   30.11R WCI -12
GRANITE FALLS  CLEAR      3  -5  68 W12       30.12R WCI -13
CANBY          CLEAR      3  -6  67 NW10      30.12R WCI -13
MARSHALL       CLEAR      1  -8  66 NW7       30.12R WCI -11
REDWOOD FALLS  CLEAR      5  -6  60 NW12      30.10R WCI -11
OLIVIA         CLEAR      1  -6  71 NW8       30.08R WCI -12
PIPESTONE      PTCLDY     3  -4  72 NW8       30.08R WCI -10
WINDOM         PTCLDY     3  -2  78 NW9       30.09R WCI -11
WORTHINGTON    PTCLDY     3  -6  66 NW9       30.12R WCI -11
JACKSON        PTCLDY     9  -4  56 NW14      30.10R WCI  -8
TRACY          CLEAR      4  -4  68 NW10      30.10R WCI -12
SLAYTON        PTCLDY     2  -7  66 CALM      30.09R
$$
MNZ065>067-074>077-082>085-091>093-040800-
   South Central Minnesota

CITY           SKY/WX    TMP DP  RH WIND       PRES   REMARKS
MANKATO        CLEAR      7  -2  66 NW15      30.07R WCI -11
NEW ULM        PTCLDY     3  -6  66 NW14G24   30.10R WCI -15
ST JAMES       CLEAR      7  -2  66 NW14G20   30.11R WCI -10
FAIRMONT       PTCLDY     9  -2  61 W15       30.09R WCI  -8
GLENCOE        CLEAR      4  -3  72 W8        30.06R WCI  -9
FARIBAULT      CLEAR      7  -4  61 W13       30.06R WCI  -9
OWATONNA       CLEAR      7  -2  66 W14       30.05R WCI -10
WASECA         CLEAR      5  -2  72 NW18G25   30.07R WCI -15
ALBERT LEA     PTCLDY     7   1  78 NW13G20   30.04R WCI  -9
$$
MNZ078>079-086>088-094>096-040800-
   Southeast Minnesota

CITY           SKY/WX    TMP DP  RH WIND       PRES   REMARKS
ROCHESTER      CLEAR      5  -2  72 NW21      30.00R WCI -16
RED WING       CLEAR      9  -2  61 NW7       30.03R WCI  -3
STANTON        CLEAR      7  -3  66 W12       30.04R WCI  -9
DODGE CENTER   PTCLDY     7  -2  66 NW14G22   30.01R WCI -10
WINONA         CLEAR     12   3  67 NW16      30.02R WCI  -4
AUSTIN         CLEAR      7   0  72 NW17      30.03R WCI -12
PRESTON        CLEAR      5  -1  74 NW16G23   30.00R WCI -13
$$
ABBREVIATIONS USED IN REMARKS
   TC - TEMPERATURES IN CELSIUS
  WCI - WIND CHILL INDEX
   HX - HEAT INDEX
  VSB - VISIBILITY
$$



USA.gov is the U.S. government's official web portal to all federal, state and local government web resources and services.